| time (UTC) | temp F | wind direction | speed MPH | gust MPH | rain 1hr in | rain 24hr in | rain mn in | humidity % | barometer mb |
| 20260509014718 | 60 | 81 | 0.0 | 1.0 | 0.00 | 0.00 | 0.00 | 56 | 1012.2 |
| 20260509014210 | 60 | 91 | 0.0 | 0.0 | 0.00 | 0.00 | 0.00 | 55 | 1012.2 |
| 20260509013704 | 60 | 91 | 0.0 | 0.0 | 0.00 | 0.00 | 0.00 | 56 | 1012.2 |
| 20260509013159 | 61 | 91 | 0.0 | 0.0 | 0.00 | 0.00 | 0.00 | 56 | 1012.2 |
| 20260509012653 | 61 | 91 | 0.0 | 1.0 | 0.00 | 0.00 | 0.00 | 56 | 1012.2 |
| 20260509012147 | 61 | 91 | 0.0 | 2.0 | 0.00 | 0.00 | 0.00 | 56 | 1012.1 |
| 20260509011641 | 61 | 86 | 0.0 | 2.0 | 0.00 | 0.00 | 0.00 | 54 | 1012.1 |
| 20260509011401 | 61 | 183 | 0.0 | 1.0 | 0.00 | 0.00 | 0.00 | 56 | 1012.1 |
| 20260509010628 | 61 | 187 | 0.0 | 3.0 | 0.00 | 0.00 | 0.00 | 54 | 1012.0 |
| 20260509010122 | 62 | 188 | 0.0 | 3.0 | 0.00 | 0.00 | 0.00 | 53 | 1011.9 |
| 20260509005617 | 62 | 333 | 0.0 | 4.0 | 0.00 | 0.00 | 0.00 | 55 | 1011.9 |
| 20260509005332 | 62 | 231 | 0.0 | 4.0 | 0.00 | 0.00 | 0.00 | 53 | 1011.9 |
| 20260509004605 | 63 | 89 | 0.0 | 3.0 | 0.00 | 0.00 | 0.00 | 54 | 1011.8 |
| 20260509004058 | 63 | 177 | 0.0 | 1.0 | 0.00 | 0.00 | 0.00 | 55 | 1011.8 |
| 20260509003553 | 64 | 185 | 0.0 | 1.0 | 0.00 | 0.00 | 0.00 | 52 | 1011.7 |
| 20260509003046 | 64 | 217 | 0.0 | 1.0 | 0.00 | 0.00 | 0.00 | 53 | 1011.7 |
| 20260509002542 | 65 | 217 | 0.0 | 2.0 | 0.00 | 0.00 | 0.00 | 50 | 1011.7 |
| 20260509002035 | 65 | 225 | 0.0 | 2.0 | 0.00 | 0.00 | 0.00 | 51 | 1011.7 |
| 20260509001528 | 65 | 145 | 0.0 | 0.0 | 0.00 | 0.00 | 0.00 | 49 | 1011.6 |
| 20260509001023 | 66 | 145 | 0.0 | 0.0 | 0.00 | 0.00 | 0.00 | 48 | 1011.6 |
| 20260509000518 | 66 | 145 | 0.0 | 0.0 | 0.00 | 0.00 | 0.00 | 47 | 1011.6 |
| 20260509000234 | 67 | 145 | 0.0 | 0.0 | 0.00 | 0.00 | 0.00 | 47 | 1011.6 |
| 20260508235505 | 67 | 145 | 0.0 | 0.0 | 0.00 | 0.00 | 0.00 | 47 | 1011.6 |
| 20260508234958 | 67 | 145 | 0.0 | 1.0 | 0.00 | 0.00 | 0.00 | 45 | 1011.4 |
| 20260508234452 | 68 | 145 | 0.0 | 1.0 | 0.00 | 0.00 | 0.00 | 45 | 1011.4 |
| 20260508233947 | 68 | 130 | 0.0 | 0.0 | 0.00 | 0.00 | 0.00 | 45 | 1011.4 |
| 20260508233441 | 68 | 130 | 0.0 | 0.0 | 0.00 | 0.00 | 0.00 | 45 | 1011.4 |
| 20260508232935 | 68 | 130 | 0.0 | 0.0 | 0.00 | 0.00 | 0.00 | 46 | 1011.4 |
| 20260508232428 | 69 | 130 | 0.0 | 1.0 | 0.00 | 0.00 | 0.00 | 44 | 1011.4 |
| 20260508231922 | 69 | 130 | 0.0 | 1.0 | 0.00 | 0.00 | 0.00 | 43 | 1011.4 |
| 20260508231416 | 69 | 311 | 0.0 | 1.0 | 0.00 | 0.00 | 0.00 | 42 | 1011.3 |
| 20260508230912 | 69 | 253 | 0.0 | 3.0 | 0.00 | 0.00 | 0.00 | 43 | 1011.3 |
| 20260508230634 | 69 | 253 | 1.0 | 3.0 | 0.00 | 0.00 | 0.00 | 43 | 1011.1 |
| 20260508225859 | 69 | 126 | 1.0 | 4.0 | 0.00 | 0.00 | 0.00 | 42 | 1011.1 |
| 20260508225619 | 69 | 207 | 1.0 | 4.0 | 0.00 | 0.00 | 0.00 | 39 | 1011.1 |
| 20260508224846 | 69 | 98 | 1.0 | 4.0 | 0.00 | 0.00 | 0.00 | 39 | 1011.1 |
| 20260508224605 | 69 | 246 | 1.0 | 4.0 | 0.00 | 0.00 | 0.00 | 39 | 1011.0 |
| 20260508223836 | 69 | 245 | 1.0 | 3.0 | 0.00 | 0.00 | 0.00 | 37 | 1011.1 |
| 20260508223328 | 69 | 267 | 2.0 | 6.0 | 0.00 | 0.00 | 0.00 | 36 | 1011.0 |
| 20260508222823 | 69 | 138 | 2.0 | 8.0 | 0.00 | 0.00 | 0.00 | 36 | 1011.1 |
| 20260508222318 | 69 | 244 | 2.0 | 8.0 | 0.00 | 0.00 | 0.00 | 37 | 1011.1 |
| 20260508221812 | 69 | 250 | 1.0 | 3.0 | 0.00 | 0.00 | 0.00 | 39 | 1011.1 |
| 20260508221304 | 69 | 73 | 1.0 | 3.0 | 0.00 | 0.00 | 0.00 | 44 | 1011.1 |
| 20260508220758 | 69 | 22 | 1.0 | 3.0 | 0.00 | 0.00 | 0.00 | 38 | 1011.1 |
| 20260508220252 | 70 | 114 | 1.0 | 2.0 | 0.00 | 0.00 | 0.00 | 40 | 1011.1 |
| 20260508215747 | 70 | 217 | 1.0 | 4.0 | 0.00 | 0.00 | 0.00 | 40 | 1011.2 |
| 20260508215242 | 70 | 130 | 1.0 | 4.0 | 0.00 | 0.00 | 0.00 | 38 | 1011.3 |
| 20260508214742 | 69 | 180 | 1.0 | 3.0 | 0.00 | 0.00 | 0.00 | 39 | 1011.3 |
| 20260508214242 | 69 | 131 | 1.0 | 6.0 | 0.00 | 0.00 | 0.00 | 37 | 1011.3 |
| 20260508213740 | 70 | 82 | 1.0 | 6.0 | 0.00 | 0.00 | 0.00 | 38 | 1011.3 |
| 20260508213239 | 70 | 211 | 1.0 | 5.0 | 0.00 | 0.00 | 0.00 | 35 | 1011.3 |
| 20260508212738 | 71 | 227 | 1.0 | 6.0 | 0.00 | 0.00 | 0.00 | 35 | 1011.3 |
| 20260508212238 | 71 | 242 | 1.0 | 6.0 | 0.00 | 0.00 | 0.00 | 35 | 1011.3 |
| 20260508211739 | 71 | 58 | 1.0 | 3.0 | 0.00 | 0.00 | 0.00 | 36 | 1011.3 |
| 20260508211236 | 71 | 186 | 1.0 | 4.0 | 0.00 | 0.00 | 0.00 | 34 | 1011.2 |
| 20260508210737 | 71 | 136 | 2.0 | 5.0 | 0.00 | 0.00 | 0.00 | 35 | 1011.3 |
| 20260508210234 | 72 | 124 | 2.0 | 5.0 | 0.00 | 0.00 | 0.00 | 35 | 1011.4 |
| 20260508205735 | 71 | 292 | 1.0 | 5.0 | 0.00 | 0.00 | 0.00 | 32 | 1011.5 |
| 20260508205233 | 72 | 232 | 1.0 | 6.0 | 0.00 | 0.00 | 0.00 | 31 | 1011.4 |
| 20260508204957 | 72 | 246 | 2.0 | 6.0 | 0.00 | 0.00 | 0.00 | 32 | 1011.4 |
| 20260508204230 | 73 | 286 | 2.0 | 8.0 | 0.00 | 0.00 | 0.00 | 30 | 1011.4 |
| 20260508203733 | 73 | 115 | 2.0 | 8.0 | 0.00 | 0.00 | 0.00 | 31 | 1011.4 |
| 20260508203231 | 73 | 198 | 2.0 | 8.0 | 0.00 | 0.00 | 0.00 | 30 | 1011.5 |
| 20260508202730 | 74 | 57 | 1.0 | 8.0 | 0.00 | 0.00 | 0.00 | 35 | 1011.6 |
| 20260508202231 | 74 | 281 | 1.0 | 7.0 | 0.00 | 0.00 | 0.00 | 30 | 1011.6 |
| 20260508201730 | 73 | 244 | 2.0 | 7.0 | 0.00 | 0.00 | 0.00 | 31 | 1011.5 |
| 20260508201231 | 75 | 57 | 2.0 | 5.0 | 0.00 | 0.00 | 0.00 | 31 | 1011.6 |
| 20260508200730 | 73 | 281 | 2.0 | 6.0 | 0.00 | 0.00 | 0.00 | 35 | 1011.7 |
| 20260508200231 | 74 | 229 | 1.0 | 6.0 | 0.00 | 0.00 | 0.00 | 30 | 1011.8 |
| 20260508195726 | 74 | 282 | 1.0 | 6.0 | 0.00 | 0.00 | 0.00 | 30 | 1011.9 |
| 20260508195227 | 74 | 139 | 2.0 | 6.0 | 0.00 | 0.00 | 0.00 | 30 | 1012.0 |
| 20260508194727 | 72 | 63 | 2.0 | 8.0 | 0.00 | 0.00 | 0.00 | 31 | 1012.0 |
| 20260508194452 | 73 | 221 | 2.0 | 8.0 | 0.00 | 0.00 | 0.00 | 31 | 1012.2 |
| 20260508193946 | 73 | 62 | 2.0 | 6.0 | 0.00 | 0.00 | 0.00 | 33 | 1012.2 |
| 20260508193226 | 74 | 62 | 2.0 | 8.0 | 0.00 | 0.00 | 0.00 | 34 | 1012.2 |
| 20260508192725 | 74 | 219 | 2.0 | 8.0 | 0.00 | 0.00 | 0.00 | 31 | 1012.4 |
| 20260508192226 | 73 | 40 | 2.0 | 9.0 | 0.00 | 0.00 | 0.00 | 33 | 1012.4 |
| 20260508191947 | 73 | 355 | 2.0 | 9.0 | 0.00 | 0.00 | 0.00 | 30 | 1012.4 |
| 20260508191226 | 74 | 325 | 2.0 | 9.0 | 0.00 | 0.00 | 0.00 | 30 | 1012.4 |
| 20260508190728 | 74 | 133 | 1.0 | 5.0 | 0.00 | 0.00 | 0.00 | 34 | 1012.5 |
| 20260508190715 | 73 | 303 | 2.0 | 8.0 | 0.00 | 0.00 | 0.00 | 33 | 1012.6 |
| 20260508185726 | 73 | 282 | 2.0 | 8.0 | 0.00 | 0.00 | 0.00 | 31 | 1012.8 |
| 20260508185226 | 73 | 231 | 2.0 | 8.0 | 0.00 | 0.00 | 0.00 | 33 | 1012.8 |
| 20260508184725 | 73 | 272 | 2.0 | 8.0 | 0.00 | 0.00 | 0.00 | 33 | 1013.0 |
| 20260508184221 | 72 | 274 | 2.0 | 9.0 | 0.00 | 0.00 | 0.00 | 32 | 1013.2 |
| 20260508183723 | 72 | 241 | 2.0 | 9.0 | 0.00 | 0.00 | 0.00 | 33 | 1013.4 |
| 20260508183219 | 72 | 276 | 2.0 | 9.0 | 0.00 | 0.00 | 0.00 | 36 | 1013.5 |
| 20260508182943 | 72 | 259 | 2.0 | 7.0 | 0.00 | 0.00 | 0.00 | 35 | 1013.4 |
| 20260508182221 | 72 | 52 | 1.0 | 7.0 | 0.00 | 0.00 | 0.00 | 34 | 1013.4 |
| 20260508181720 | 72 | 230 | 1.0 | 6.0 | 0.00 | 0.00 | 0.00 | 34 | 1013.2 |
| 20260508181221 | 73 | 238 | 2.0 | 8.0 | 0.00 | 0.00 | 0.00 | 36 | 1013.5 |
| 20260508180720 | 72 | 73 | 2.0 | 8.0 | 0.00 | 0.00 | 0.00 | 34 | 1013.6 |
| 20260508180215 | 71 | 147 | 2.0 | 7.0 | 0.00 | 0.00 | 0.00 | 36 | 1013.7 |
| 20260508175716 | 71 | 147 | 2.0 | 7.0 | 0.00 | 0.00 | 0.00 | 36 | 1013.8 |
| 20260508175218 | 72 | 289 | 2.0 | 7.0 | 0.00 | 0.00 | 0.00 | 37 | 1013.9 |
| 20260508174715 | 70 | 115 | 3.0 | 10.0 | 0.00 | 0.00 | 0.00 | 37 | 1013.8 |
| 20260508174212 | 71 | 202 | 3.0 | 10.0 | 0.00 | 0.00 | 0.00 | 37 | 1014.0 |
| 20260508173711 | 72 | 317 | 2.0 | 6.0 | 0.00 | 0.00 | 0.00 | 34 | 1013.9 |
| 20260508173209 | 71 | 46 | 1.0 | 7.0 | 0.00 | 0.00 | 0.00 | 37 | 1013.9 |
| 20260508172708 | 70 | 209 | 1.0 | 7.0 | 0.00 | 0.00 | 0.00 | 35 | 1014.0 |
| 20260508172207 | 72 | 153 | 2.0 | 8.0 | 0.00 | 0.00 | 0.00 | 37 | 1014.0 |
| 20260508171709 | 71 | 211 | 2.0 | 8.0 | 0.00 | 0.00 | 0.00 | 36 | 1014.1 |
| 20260508171208 | 69 | 204 | 2.0 | 8.0 | 0.00 | 0.00 | 0.00 | 37 | 1014.2 |
| 20260508170705 | 70 | 304 | 2.0 | 8.0 | 0.00 | 0.00 | 0.00 | 38 | 1014.2 |
| 20260508170207 | 69 | 219 | 2.0 | 8.0 | 0.00 | 0.00 | 0.00 | 34 | 1014.3 |
| 20260508165704 | 69 | 310 | 2.0 | 9.0 | 0.00 | 0.00 | 0.00 | 38 | 1014.3 |
| 20260508165205 | 69 | 325 | 2.0 | 9.0 | 0.00 | 0.00 | 0.00 | 37 | 1014.5 |
| 20260508164705 | 68 | 248 | 2.0 | 6.0 | 0.00 | 0.00 | 0.00 | 37 | 1014.4 |
| 20260508164203 | 69 | 17 | 2.0 | 9.0 | 0.00 | 0.00 | 0.00 | 37 | 1014.7 |
| 20260508163923 | 68 | 257 | 2.0 | 9.0 | 0.00 | 0.00 | 0.00 | 37 | 1014.6 |
| 20260508163204 | 69 | 340 | 2.0 | 8.0 | 0.00 | 0.00 | 0.00 | 38 | 1014.8 |
| 20260508162658 | 67 | 304 | 2.0 | 8.0 | 0.00 | 0.00 | 0.00 | 40 | 1014.9 |
| 20260508162422 | 67 | 25 | 3.0 | 8.0 | 0.00 | 0.00 | 0.00 | 39 | 1015.0 |
| 20260508161645 | 67 | 265 | 2.0 | 8.0 | 0.00 | 0.00 | 0.00 | 40 | 1015.0 |
| 20260508161139 | 66 | 213 | 2.0 | 6.0 | 0.00 | 0.00 | 0.00 | 43 | 1015.1 |
| 20260508160634 | 67 | 0 | 2.0 | 8.0 | 0.00 | 0.00 | 0.00 | 39 | 1015.1 |
| 20260508160128 | 66 | 53 | 3.0 | 8.0 | 0.00 | 0.00 | 0.00 | 40 | 1015.3 |
| 20260508155622 | 65 | 196 | 2.0 | 8.0 | 0.00 | 0.00 | 0.00 | 41 | 1015.2 |
| 20260508155603 | 65 | 331 | 2.0 | 8.0 | 0.00 | 0.00 | 0.00 | 40 | 1015.3 |
| 20260508154611 | 66 | 299 | 2.0 | 5.0 | 0.00 | 0.00 | 0.00 | 40 | 1015.3 |
| 20260508154106 | 65 | 355 | 2.0 | 6.0 | 0.00 | 0.00 | 0.00 | 42 | 1015.5 |
| 20260508153558 | 65 | 5 | 2.0 | 8.0 | 0.00 | 0.00 | 0.00 | 40 | 1015.4 |
| 20260508153052 | 65 | 275 | 2.0 | 8.0 | 0.00 | 0.00 | 0.00 | 42 | 1015.5 |
| 20260508152547 | 64 | 42 | 2.0 | 8.0 | 0.00 | 0.00 | 0.00 | 45 | 1015.5 |
| 20260508152040 | 64 | 252 | 3.0 | 8.0 | 0.00 | 0.00 | 0.00 | 43 | 1015.6 |
| 20260508151535 | 63 | 67 | 2.0 | 8.0 | 0.00 | 0.00 | 0.00 | 43 | 1015.5 |
| 20260508151029 | 63 | 135 | 1.0 | 7.0 | 0.00 | 0.00 | 0.00 | 47 | 1015.6 |
| 20260508150522 | 62 | 306 | 2.0 | 7.0 | 0.00 | 0.00 | 0.00 | 46 | 1015.6 |
| 20260508150017 | 62 | 241 | 2.0 | 4.0 | 0.00 | 0.00 | 0.00 | 47 | 1015.6 |
| 20260508145518 | 62 | 252 | 1.0 | 4.0 | 0.00 | 0.00 | 0.00 | 45 | 1015.8 |
| 20260508145018 | 61 | 271 | 1.0 | 3.0 | 0.00 | 0.00 | 0.00 | 48 | 1015.8 |
| 20260508144517 | 60 | 175 | 2.0 | 4.0 | 0.00 | 0.00 | 0.00 | 48 | 1015.8 |
| 20260508144018 | 60 | 255 | 2.0 | 6.0 | 0.00 | 0.00 | 0.00 | 49 | 1015.9 |
| 20260508143518 | 60 | 39 | 2.0 | 6.0 | 0.00 | 0.00 | 0.00 | 46 | 1015.9 |
| 20260508143020 | 59 | 225 | 1.0 | 4.0 | 0.00 | 0.00 | 0.00 | 53 | 1015.9 |
| 20260508142517 | 59 | 227 | 1.0 | 4.0 | 0.00 | 0.00 | 0.00 | 52 | 1015.8 |
| 20260508142014 | 59 | 192 | 1.0 | 3.0 | 0.00 | 0.00 | 0.00 | 50 | 1015.8 |
| 20260508141720 | 58 | 0 | 0.0 | 4.0 | 0.00 | 0.00 | 0.00 | 53 | 1016.0 |
| 20260508141608 | 59 | 229 | 1.0 | 4.0 | 0.00 | 0.00 | 0.00 | 51 | 1015.9 |
| 20260508140510 | 57 | 248 | 0.0 | 4.0 | 0.00 | 0.00 | 0.00 | 57 | 1016.0 |
| 20260508140010 | 56 | 141 | 1.0 | 4.0 | 0.00 | 0.00 | 0.00 | 57 | 1016.0 |
| 20260508135508 | 56 | 183 | 1.0 | 5.0 | 0.00 | 0.00 | 0.00 | 57 | 1016.0 |
| 20260508135007 | 55 | 33 | 1.0 | 5.0 | 0.00 | 0.00 | 0.00 | 59 | 1016.0 |
| 20260508134725 | 54 | 65 | 1.0 | 4.0 | 0.00 | 0.00 | 0.00 | 61 | 1016.0 |
| 20260508134229 | 54 | 61 | 1.0 | 4.0 | 0.00 | 0.00 | 0.00 | 61 | 1016.1 |
| 20260508133508 | 53 | 294 | 1.0 | 4.0 | 0.00 | 0.00 | 0.00 | 65 | 1016.1 |
| 20260508133009 | 53 | 238 | 1.0 | 4.0 | 0.00 | 0.00 | 0.00 | 65 | 1016.2 |
| 20260508132505 | 52 | 177 | 1.0 | 4.0 | 0.00 | 0.00 | 0.00 | 68 | 1016.2 |
| 20260508131958 | 52 | 216 | 1.0 | 4.0 | 0.00 | 0.00 | 0.00 | 71 | 1016.2 |
| 20260508131723 | 51 | 238 | 1.0 | 4.0 | 0.00 | 0.00 | 0.00 | 71 | 1016.2 |
| 20260508130946 | 51 | 317 | 0.0 | 1.0 | 0.00 | 0.01 | 0.00 | 75 | 1016.1 |
| 20260508130440 | 50 | 272 | 0.0 | 2.0 | 0.00 | 0.01 | 0.00 | 76 | 1016.2 |
| 20260508130202 | 50 | 287 | 0.0 | 2.0 | 0.00 | 0.01 | 0.00 | 77 | 1016.3 |
| 20260508125648 | 49 | 227 | 0.0 | 2.0 | 0.00 | 0.01 | 0.00 | 79 | 1016.3 |
| 20260508124921 | 49 | 242 | 0.0 | 2.0 | 0.00 | 0.01 | 0.00 | 79 | 1016.3 |
| 20260508124415 | 48 | 325 | 0.0 | 2.0 | 0.00 | 0.01 | 0.00 | 80 | 1016.2 |
| 20260508123910 | 47 | 306 | 1.0 | 4.0 | 0.00 | 0.01 | 0.00 | 81 | 1016.3 |
| 20260508123403 | 47 | 346 | 1.0 | 4.0 | 0.00 | 0.01 | 0.00 | 84 | 1016.2 |
| 20260508122858 | 46 | 38 | 1.0 | 3.0 | 0.00 | 0.01 | 0.00 | 86 | 1016.1 |
| 20260508122351 | 46 | 307 | 0.0 | 2.0 | 0.00 | 0.01 | 0.00 | 88 | 1016.1 |
| 20260508121845 | 45 | 279 | 0.0 | 1.0 | 0.00 | 0.01 | 0.00 | 89 | 1016.1 |
| 20260508121339 | 45 | 286 | 0.0 | 2.0 | 0.00 | 0.01 | 0.00 | 89 | 1016.0 |
| 20260508120833 | 45 | 274 | 0.0 | 2.0 | 0.00 | 0.01 | 0.00 | 89 | 1016.0 |
| 20260508120327 | 44 | 355 | 0.0 | 2.0 | 0.00 | 0.01 | 0.00 | 90 | 1016.0 |
| 20260508115823 | 44 | 355 | 0.0 | 0.0 | 0.00 | 0.01 | 0.00 | 89 | 1016.0 |
| 20260508115318 | 44 | 355 | 0.0 | 0.0 | 0.00 | 0.01 | 0.00 | 88 | 1015.9 |
| 20260508114819 | 43 | 355 | 0.0 | 0.0 | 0.00 | 0.01 | 0.00 | 88 | 1015.7 |
| 20260508114805 | 43 | 355 | 0.0 | 0.0 | 0.00 | 0.01 | 0.00 | 87 | 1015.7 |
| 20260508114302 | 43 | 355 | 0.0 | 0.0 | 0.00 | 0.01 | 0.00 | 87 | 1015.8 |
| 20260508113316 | 43 | 355 | 0.0 | 0.0 | 0.00 | 0.01 | 0.00 | 86 | 1015.8 |
| 20260508112813 | 43 | 355 | 0.0 | 0.0 | 0.00 | 0.01 | 0.00 | 86 | 1015.7 |
| 20260508112313 | 43 | 355 | 0.0 | 0.0 | 0.00 | 0.01 | 0.00 | 86 | 1015.6 |
| 20260508111809 | 43 | 355 | 0.0 | 0.0 | 0.00 | 0.01 | 0.00 | 86 | 1015.6 |
| 20260508111309 | 42 | 355 | 0.0 | 0.0 | 0.00 | 0.01 | 0.00 | 85 | 1015.5 |
| 20260508110806 | 42 | 355 | 0.0 | 0.0 | 0.00 | 0.01 | 0.00 | 85 | 1015.3 |
| 20260508110306 | 42 | 355 | 0.0 | 0.0 | 0.00 | 0.01 | 0.00 | 85 | 1015.2 |
| 20260508105805 | 42 | 355 | 0.0 | 0.0 | 0.00 | 0.01 | 0.00 | 85 | 1015.2 |
| 20260508105306 | 42 | 355 | 0.0 | 0.0 | 0.00 | 0.01 | 0.00 | 85 | 1015.1 |
| 20260508104806 | 42 | 355 | 0.0 | 0.0 | 0.00 | 0.01 | 0.00 | 84 | 1014.9 |
| 20260508104305 | 42 | 355 | 0.0 | 0.0 | 0.00 | 0.01 | 0.00 | 84 | 1014.9 |
| 20260508103806 | 43 | 355 | 0.0 | 0.0 | 0.00 | 0.01 | 0.00 | 84 | 1014.9 |
| 20260508103307 | 43 | 355 | 0.0 | 0.0 | 0.00 | 0.01 | 0.00 | 83 | 1014.8 |
| 20260508102806 | 43 | 355 | 0.0 | 0.0 | 0.00 | 0.01 | 0.00 | 83 | 1014.7 |
| 20260508102307 | 43 | 355 | 0.0 | 0.0 | 0.00 | 0.01 | 0.00 | 83 | 1014.7 |
| 20260508101806 | 43 | 355 | 0.0 | 0.0 | 0.00 | 0.01 | 0.00 | 82 | 1014.6 |
| 20260508101304 | 43 | 355 | 0.0 | 0.0 | 0.00 | 0.01 | 0.00 | 82 | 1014.4 |
| 20260508100806 | 44 | 355 | 0.0 | 0.0 | 0.00 | 0.01 | 0.00 | 82 | 1014.3 |
| 20260508100527 | 44 | 355 | 0.0 | 0.0 | 0.00 | 0.01 | 0.00 | 81 | 1014.2 |
| 20260508100032 | 44 | 355 | 0.0 | 0.0 | 0.00 | 0.01 | 0.00 | 81 | 1014.1 |
| 20260508095306 | 44 | 355 | 0.0 | 0.0 | 0.00 | 0.01 | 0.00 | 81 | 1014.2 |
| 20260508094806 | 44 | 355 | 0.0 | 0.0 | 0.00 | 0.01 | 0.00 | 81 | 1014.1 |
| 20260508094742 | 45 | 355 | 0.0 | 0.0 | 0.00 | 0.01 | 0.00 | 80 | 1014.0 |
| 20260508093805 | 45 | 355 | 0.0 | 0.0 | 0.00 | 0.01 | 0.00 | 80 | 1014.0 |
| 20260508093305 | 45 | 355 | 0.0 | 0.0 | 0.00 | 0.01 | 0.00 | 80 | 1014.1 |
| 20260508092804 | 45 | 355 | 0.0 | 0.0 | 0.00 | 0.01 | 0.00 | 80 | 1014.1 |
| 20260508092313 | 46 | 355 | 0.0 | 0.0 | 0.00 | 0.01 | 0.00 | 80 | 1014.2 |
| 20260508091800 | 46 | 355 | 0.0 | 0.0 | 0.00 | 0.01 | 0.00 | 80 | 1014.2 |
| 20260508091254 | 46 | 355 | 0.0 | 0.0 | 0.00 | 0.01 | 0.00 | 80 | 1014.2 |
| 20260508090748 | 46 | 355 | 0.0 | 0.0 | 0.00 | 0.01 | 0.00 | 80 | 1014.2 |
| 20260508090244 | 46 | 355 | 0.0 | 2.0 | 0.00 | 0.01 | 0.00 | 80 | 1014.1 |
| 20260508085744 | 46 | 355 | 0.0 | 2.0 | 0.00 | 0.01 | 0.00 | 80 | 1014.0 |
| 20260508085244 | 46 | 355 | 0.0 | 2.0 | 0.00 | 0.01 | 0.00 | 80 | 1013.9 |
| 20260508084743 | 46 | 355 | 0.0 | 2.0 | 0.00 | 0.01 | 0.00 | 80 | 1013.8 |
| 20260508084243 | 46 | 0 | 0.0 | 2.0 | 0.00 | 0.01 | 0.00 | 80 | 1013.8 |
| 20260508083742 | 46 | 342 | 0.0 | 2.0 | 0.00 | 0.01 | 0.00 | 79 | 1013.8 |
| 20260508083456 | 47 | 51 | 0.0 | 1.0 | 0.00 | 0.01 | 0.00 | 79 | 1013.8 |
| 20260508082738 | 47 | 55 | 0.0 | 1.0 | 0.00 | 0.01 | 0.00 | 79 | 1013.8 |
| 20260508082435 | 47 | 15 | 0.0 | 3.0 | 0.00 | 0.01 | 0.00 | 81 | 1013.6 |
| 20260508082324 | 47 | 55 | 0.0 | 2.0 | 0.00 | 0.01 | 0.00 | 80 | 1013.8 |
| 20260508081231 | 47 | 65 | 1.0 | 3.0 | 0.00 | 0.01 | 0.00 | 83 | 1013.6 |
| 20260508080952 | 47 | 25 | 1.0 | 3.0 | 0.00 | 0.01 | 0.00 | 83 | 1013.6 |
| 20260508080229 | 47 | 314 | 0.0 | 3.0 | 0.00 | 0.01 | 0.00 | 83 | 1013.5 |
| 20260508075730 | 47 | 20 | 0.0 | 3.0 | 0.00 | 0.01 | 0.00 | 83 | 1013.6 |
| 20260508075228 | 46 | 333 | 0.0 | 3.0 | 0.00 | 0.01 | 0.00 | 84 | 1013.5 |
| 20260508074729 | 46 | 37 | 0.0 | 2.0 | 0.00 | 0.01 | 0.00 | 85 | 1013.5 |
| 20260508074450 | 46 | 64 | 1.0 | 4.0 | 0.00 | 0.01 | 0.00 | 86 | 1013.5 |
| 20260508073727 | 46 | 355 | 1.0 | 5.0 | 0.00 | 0.01 | 0.00 | 87 | 1013.4 |
| 20260508073227 | 46 | 84 | 1.0 | 5.0 | 0.00 | 0.01 | 0.00 | 89 | 1013.4 |
| 20260508072720 | 46 | 90 | 1.0 | 4.0 | 0.00 | 0.01 | 0.00 | 89 | 1013.2 |
| 20260508072213 | 46 | 19 | 1.0 | 4.0 | 0.00 | 0.01 | 0.00 | 90 | 1013.1 |
| 20260508071707 | 46 | 5 | 1.0 | 3.0 | 0.00 | 0.01 | 0.00 | 90 | 1013.1 |
| 20260508071203 | 46 | 23 | 0.0 | 3.0 | 0.00 | 0.01 | 0.00 | 90 | 1013.0 |
| 20260508070655 | 46 | 12 | 0.0 | 2.0 | 0.00 | 0.01 | 0.00 | 90 | 1013.0 |
| 20260508070418 | 46 | 50 | 0.0 | 3.0 | 0.00 | 0.01 | 0.00 | 90 | 1012.9 |
| 20260508065640 | 46 | 13 | 0.0 | 3.0 | 0.00 | 0.01 | 0.00 | 90 | 1012.9 |
| 20260508065136 | 46 | 0 | 0.0 | 3.0 | 0.00 | 0.01 | 0.00 | 90 | 1012.7 |
| 20260508064629 | 47 | 52 | 0.0 | 3.0 | 0.00 | 0.01 | 0.00 | 90 | 1012.7 |
| 20260508064123 | 47 | 355 | 0.0 | 1.0 | 0.00 | 0.01 | 0.00 | 90 | 1012.6 |
| 20260508063617 | 47 | 355 | 0.0 | 1.0 | 0.00 | 0.01 | 0.00 | 90 | 1012.6 |
| 20260508063112 | 47 | 355 | 0.0 | 1.0 | 0.00 | 0.01 | 0.00 | 90 | 1012.5 |
| 20260508062606 | 47 | 240 | 0.0 | 0.0 | 0.00 | 0.01 | 0.00 | 90 | 1012.5 |
| 20260508062100 | 47 | 240 | 0.0 | 0.0 | 0.00 | 0.01 | 0.00 | 90 | 1012.4 |
| 20260508061554 | 47 | 240 | 0.0 | 0.0 | 0.00 | 0.01 | 0.00 | 90 | 1012.3 |
| 20260508061312 | 47 | 240 | 0.0 | 0.0 | 0.00 | 0.01 | 0.00 | 90 | 1012.3 |
| 20260508060542 | 47 | 240 | 0.0 | 0.0 | 0.00 | 0.01 | 0.00 | 90 | 1012.3 |
| 20260508060036 | 48 | 240 | 0.0 | 0.0 | 0.00 | 0.01 | 0.00 | 90 | 1012.2 |
| 20260508055529 | 48 | 240 | 0.0 | 0.0 | 0.00 | 0.01 | 0.00 | 90 | 1012.3 |
| 20260508055023 | 48 | 240 | 0.0 | 0.0 | 0.00 | 0.01 | 0.00 | 90 | 1012.4 |
| 20260508054749 | 48 | 240 | 0.0 | 0.0 | 0.00 | 0.01 | 0.00 | 90 | 1012.4 |
| 20260508054011 | 48 | 240 | 0.0 | 1.0 | 0.00 | 0.01 | 0.00 | 90 | 1012.4 |
| 20260508053504 | 48 | 240 | 0.0 | 1.0 | 0.00 | 0.02 | 0.00 | 90 | 1012.5 |
| 20260508053000 | 48 | 240 | 0.0 | 0.0 | 0.00 | 0.02 | 0.00 | 90 | 1012.5 |
| 20260508052453 | 48 | 240 | 0.0 | 0.0 | 0.00 | 0.02 | 0.00 | 90 | 1012.4 |
| 20260508051947 | 48 | 240 | 0.0 | 0.0 | 0.00 | 0.03 | 0.00 | 90 | 1012.4 |
| 20260508051441 | 48 | 240 | 0.0 | 1.0 | 0.00 | 0.05 | 0.00 | 89 | 1012.3 |
| 20260508050936 | 49 | 240 | 0.0 | 1.0 | 0.00 | 0.06 | 0.00 | 89 | 1012.2 |
| 20260508050430 | 49 | 240 | 0.0 | 0.0 | 0.00 | 0.06 | 0.00 | 90 | 1012.1 |
| 20260508045923 | 49 | 240 | 0.0 | 0.0 | 0.00 | 0.06 | 0.00 | 90 | 1012.1 |
| 20260508045417 | 49 | 240 | 0.0 | 0.0 | 0.00 | 0.07 | 0.00 | 89 | 1012.0 |
| 20260508044911 | 49 | 240 | 0.0 | 0.0 | 0.00 | 0.07 | 0.00 | 89 | 1012.0 |
| 20260508044632 | 49 | 240 | 0.0 | 0.0 | 0.00 | 0.07 | 0.00 | 89 | 1012.0 |
| 20260508043859 | 49 | 240 | 0.0 | 0.0 | 0.00 | 0.07 | 0.00 | 89 | 1011.9 |
| 20260508043353 | 49 | 240 | 0.0 | 1.0 | 0.00 | 0.08 | 0.00 | 89 | 1011.8 |
| 20260508042848 | 49 | 240 | 0.0 | 1.0 | 0.00 | 0.10 | 0.00 | 89 | 1011.8 |
| 20260508042601 | 49 | 263 | 0.0 | 0.0 | 0.00 | 0.11 | 0.00 | 89 | 1011.7 |
| 20260508041835 | 49 | 230 | 0.0 | 1.0 | 0.00 | 0.14 | 0.00 | 89 | 1011.7 |
| 20260508041329 | 49 | 230 | 0.0 | 2.0 | 0.00 | 0.23 | 0.00 | 89 | 1011.7 |
| 20260508040823 | 50 | 252 | 0.0 | 1.0 | 0.00 | 0.32 | 0.00 | 89 | 1011.7 |
| 20260508040317 | 50 | 304 | 0.0 | 2.0 | 0.00 | 0.37 | 0.00 | 88 | 1011.7 |
| 20260508035811 | 50 | 281 | 0.0 | 2.0 | 0.00 | 0.37 | 0.37 | 88 | 1011.7 |
| 20260508035307 | 50 | 207 | 0.0 | 1.0 | 0.00 | 0.37 | 0.37 | 88 | 1011.6 |
| 20260508034800 | 50 | 207 | 0.0 | 0.0 | 0.00 | 0.37 | 0.37 | 88 | 1011.6 |
| 20260508034519 | 50 | 207 | 0.0 | 0.0 | 0.00 | 0.37 | 0.37 | 88 | 1011.4 |
| 20260508033747 | 50 | 207 | 0.0 | 0.0 | 0.00 | 0.37 | 0.37 | 88 | 1011.4 |
| 20260508033241 | 50 | 207 | 0.0 | 1.0 | 0.00 | 0.37 | 0.37 | 88 | 1011.4 |
| 20260508032736 | 50 | 207 | 0.0 | 2.0 | 0.00 | 0.37 | 0.37 | 88 | 1011.4 |
| 20260508032230 | 50 | 211 | 0.0 | 1.0 | 0.00 | 0.37 | 0.37 | 87 | 1011.4 |
| 20260508031955 | 51 | 211 | 0.0 | 1.0 | 0.00 | 0.37 | 0.37 | 87 | 1011.4 |
| 20260508031217 | 51 | 219 | 0.0 | 2.0 | 0.00 | 0.37 | 0.37 | 87 | 1011.3 |
| 20260508030931 | 51 | 219 | 0.0 | 2.0 | 0.00 | 0.37 | 0.37 | 87 | 1011.3 |
| 20260508030205 | 51 | 268 | 0.0 | 2.0 | 0.00 | 0.37 | 0.37 | 88 | 1011.3 |
| 20260508025700 | 51 | 265 | 0.0 | 2.0 | 0.00 | 0.37 | 0.37 | 87 | 1011.3 |
| 20260508025152 | 51 | 209 | 0.0 | 2.0 | 0.00 | 0.37 | 0.37 | 87 | 1011.3 |
| 20260508024647 | 51 | 202 | 0.0 | 2.0 | 0.00 | 0.37 | 0.37 | 87 | 1011.3 |
| 20260508024141 | 51 | 202 | 0.0 | 2.0 | 0.00 | 0.37 | 0.37 | 87 | 1011.3 |
| 20260508023640 | 51 | 203 | 0.0 | 2.0 | 0.00 | 0.37 | 0.37 | 87 | 1011.3 |
| 20260508023126 | 51 | 203 | 0.0 | 2.0 | 0.00 | 0.37 | 0.37 | 87 | 1011.2 |
| 20260508022619 | 51 | 201 | 0.0 | 4.0 | 0.00 | 0.37 | 0.37 | 86 | 1011.2 |
| 20260508022330 | 51 | 271 | 0.0 | 4.0 | 0.00 | 0.37 | 0.37 | 86 | 1011.2 |
| 20260508021607 | 51 | 192 | 0.0 | 2.0 | 0.00 | 0.37 | 0.37 | 86 | 1011.2 |
| 20260508021322 | 51 | 216 | 0.0 | 1.0 | 0.00 | 0.37 | 0.37 | 85 | 1011.1 |
| 20260508020556 | 51 | 252 | 0.0 | 0.0 | 0.00 | 0.37 | 0.37 | 85 | 1011.0 |
| 20260508020525 | 51 | 252 | 0.0 | 1.0 | 0.00 | 0.37 | 0.37 | 85 | 1011.0 |
| 20260508015811 | 51 | 252 | 0.0 | 1.0 | 0.00 | 0.37 | 0.37 | 84 | 1011.0 |